User: anonymous   Login
Location: Libas
(9.8833°N, 125.9833°E)
Time: 14:44:53
(UTC+00:00)
Language:

deb Chang Zheng 4 - Orbit

View from above orbital plane
View from above orbital plane
View from above satellite
View from above satellite

Ground track
Ground track

The orbit data is extracted from the following two-line orbital elements,

1 20847U 90081K   21020.21363053  .00001889  00000-0  22608-3 0  9994
2 20847  98.5701  12.5370 0015644 173.5437 186.5980 14.85425886600409
Epoch (UTC): 20 January 2021 05:07:37
Eccentricity: 0.0015644
inclination: 98.5701°
perigee height: 601 km
apogee height: 623 km
right ascension of ascending node: 12.5370°
argument of perigee: 173.5437°
revolutions per day: 14.85425886
mean anomaly at epoch: 186.5980°
orbit number at epoch: 60040

The dashed part of the orbit path shows where the satellite is in the earth's shadow,  

DLR